Location: Dillon
(41.1766°N, 107.0923°W)
Time: 00:50:13
(UTC+00:00)

DIWATA 2B (PO-101) - Pass Details

Date: 01 July 2022
Orbit: 583 x 599 km, 98.0° (Epoch: 15 August)

Event Time Altitude Azimuth Distance (km) Brightness Sun altitude
Exits shadow 08:05:44 15° 103° (ESE) 1,630 ? -24.5°
Maximum altitude 08:07:46 21° 67° (ENE) 1,370 ? -24.4°
Drops below altitude 10° 08:10:55 10° 18° (NNE) 1,947 ? -24.3°
Sets 08:13:30 0° 3° (N) 2,855 ? -24.2°
